Tracking 33195 objects as of 8-Feb-2026
HD Live streaming from Space Station
objects crossing your sky now

COSMOS 1275 DEB

Track COSMOS 1275 DEB now!
10-day predictions


NORAD ID: 39963
Int'l Code: 1981-053PF
Perigee: 914.7 km
Apogee: 1,114.7 km
Inclination: 83.0 °
Period: 105.3 minutes
Semi major axis: 7385 km
RCS: 0.01 m2 (small)
Launch date: April 25, 1981
Source: Commonwealth of Independent States (former USSR) (CIS)
Launch site: PLESETSK MISSILE AND SPACE COMPLEX (PKMTR)

Note: This is SATELLITE DEBRIS
Your satellite tracking list
Your tracking list is empty




NASA's NSSDC Master Catalog

Two Line Element Set (TLE):
1 39963U 81053NZ  26021.57302423  .00001716  00000-0  18857-2 0  9990
2 39963  83.0075 124.8859 0135371 145.7356 215.2624 13.67770021579145
Source of the keplerian elements: AFSPC